Zurück zum Katalog

GLOBALSTAR M065

AktivKommunikationLEO
NORAD 31571·PAYLOAD·🇺🇸 United States

Gestartet May 29, 2007 von Baikonur Cosmodrome

Loading…

Nächste Überflüge (nächste 24 Stunden)

TLE

AktuellSource: Space-Track

Epoche: Sep 14, 2026, 02:41 UTC

1 31571U 07020A   26257.11183184 -.00000024  00000-0  44498-3 0  9994
2 31571  51.9884 284.6292 0009463 233.3059 160.0038 12.62035360890726

Verfolge GLOBALSTAR M065 in Echtzeit mit AllMySat

Download on the App Store